Location: Newark
(34.0429°S, 151.2068°E)
Time: 11:28:02
(UTC+00:00)

LightSail 2 - Visible Passes

Search period start: 07 April 2020 00:00
Search period end: 17 April 2020 00:00
Orbit: 694 x 724 km, 24.0° (Epoch: 06 April)

Date Brightness Start Highest point End Pass type
(mag) Time Alt. Az. Time Alt. Az. Time Alt. Az.
07 Apr 6.7 08:02:03 10° WNW 08:06:26 27° N 08:10:48 10° NE visible
07 Apr 7.0 09:47:32 10° WNW 09:51:12 20° NNW 09:51:12 20° NNW visible
08 Apr 6.9 08:48:06 10° WNW 08:52:12 23° N 08:55:38 13° NE visible
09 Apr 7.3 09:34:50 10° NW 09:37:54 16° NNW 09:38:58 15° N visible
10 Apr 7.2 08:35:08 10° WNW 08:38:46 19° NNW 08:42:24 10° NNE visible
11 Apr 7.7 09:23:05 10° NW 09:24:24 11° NNW 09:25:42 10° N visible
12 Apr 7.6 08:22:33 10° NW 08:25:17 14° NNW 08:28:01 10° NNE visible
